Regional Weather Roundup
Issued by NWS Charleston, WV

Home | Current Version | Previous Version | Graphics & Text | Print | Product List | Glossary On
Versions: 1 2 3 4 5 6 7 8 9 10 11 12 13 14 15 16 17 18 19 20 21 22 23 24 25 26 27
000
ASUS41 KRLX 220910
RWRRLX
West Virginia Regional Weather Roundup
National Weather Service Charleston WV
500 AM EDT SAT JUL 22 2017

Note: "fair" indicates few or no clouds below 12,000 feet with no
significant weather and/or obstructions to visibility.

WVZ003-221000-
Northern Panhandle of West Virginia

CITY           SKY/WX    TMP DP  RH WIND       PRES   REMARKS
WHEELING       CLOUDY    72  70  93 S5        29.95F FOG
$$

WVZ009-221000-
Northwest West Virginia

CITY           SKY/WX    TMP DP  RH WIND       PRES   REMARKS
PARKERSBURG    FOG       71  71 100 CALM      29.96F VSB 3/4
$$

WVZ006-221000-
Western West Virginia

CITY           SKY/WX    TMP DP  RH WIND       PRES   REMARKS
HUNTINGTON     PTCLDY    74  72  93 CALM      29.94S
$$

WVZ015-221000-
West Central West Virginia

CITY           SKY/WX    TMP DP  RH WIND       PRES   REMARKS
CHARLESTON     CLOUDY    72  69  90 CALM      29.95F
$$

WVZ022-031-221000-
North Central West Virginia

CITY           SKY/WX    TMP DP  RH WIND       PRES   REMARKS
CLARKSBURG     CLOUDY    69  67  93 CALM      29.97S
MORGANTOWN     CLOUDY    70  68  93 CALM      29.98S
$$

WVZ025-035-042-045-221000-
Southern West Virginia

CITY           SKY/WX    TMP DP  RH WIND       PRES   REMARKS
BECKLEY        CLOUDY    70  65  84 S5        30.05F
LOGAN            N/A     72  72 100 CALM      30.00S
BLUEFIELD      CLEAR     69  65  86 W6        30.09F
LEWISBURG      PTCLDY    64  63  95 NE3       30.05S
$$

WVZ047-221000-
Northern Mountains of West Virginia

CITY           SKY/WX    TMP DP  RH WIND       PRES   REMARKS
ELKINS         CLOUDY    66  64  93 CALM      30.04S
$$

WVZ052-221000-
Eastern Panhandle of West Virginia

CITY           SKY/WX    TMP DP  RH WIND       PRES   REMARKS
MARTINSBURG    CLEAR     70  68  93 CALM      29.91S
PETERSBURG     FOG       68  68  99 CALM      29.97S VSB 1/4
$$




USA.gov is the U.S. government's official web portal to all federal, state and local government web resources and services.